Regional Weather Roundup
Issued by NWS

Home | Current Version | Previous Version | Graphics & Text | Print | Product List | Glossary On
Versions: 1 2 3 4 5 6 7 8 9 10 11 12 13 14 15 16 17 18 19 20 21 22 23 24 25 26 27 28 29 30 31 32 33 34 35 36 37 38 39 40 41 42 43 44 45 46 47 48 49 50
000
ASUS43 KLMK 232202
RWRKY
KENTUCKY REGIONAL WEATHER ROUNDUP
NATIONAL WEATHER SERVICE LOUISVILLE KY
600 PM EDT THU OCT 23 2014

NOTE "FAIR" INDICATES FEW OR NO CLOUDS BELOW 12,000 FEET
WITH NO SIGNIFICANT WEATHER AND/OR OBSTRUCTIONS TO VISIBILITY.

KYZ001>023-026-027-061>063-070>075-232300-
WESTERN AND SOUTH CENTRAL KENTUCKY

CITY           SKY/WX    TMP DP  RH WIND       PRES   REMARKS
PADUCAH        CLOUDY    58  44  60 N5        30.13S
HENDERSON      CLOUDY   N/A N/A N/A CALM      30.13F
OWENSBORO      CLOUDY    60  42  51 VRB3      30.14S
HOPKINSVILLE   CLOUDY    61  42  50 N3        30.13R
BOWLING GREEN  SUNNY     62  40  44 CALM      30.13S
GLASGOW        NOT AVBL
$$

KYZ024-025-028>034-038-045-046-053-232300-
NORTH CENTRAL KENTUCKY

CITY           SKY/WX    TMP DP  RH WIND       PRES   REMARKS
LOUISVILLE/SDF MOCLDY    62  42  47 SW8       30.13S
LOUISVILLE/LOU MOCLDY    61  40  45 CALM      30.14S
FORT KNOX      CLEAR     60  42  51 NE2       30.12S
$$

KYZ035>037-039>044-047>052-055>060-089>105-232300-
NORTHEAST KENTUCKY

CITY           SKY/WX    TMP DP  RH WIND       PRES   REMARKS
LEXINGTON      CLEAR     60  43  53 NE5       30.14S
COVINGTON      MOCLDY    59  39  47 CALM      30.13S
FRANKFORT      PTCLDY    59  41  51 CALM      30.13S
$$

KYZ054-064>069-076>088-106>120-232300-
SOUTHEAST KENTUCKY

CITY           SKY/WX    TMP DP  RH WIND       PRES   REMARKS
JACKSON        CLEAR     58  39  49 CALM      30.12F
LONDON         CLEAR     60  40  47 N5        30.12S
SOMERSET       CLEAR     57  41  54 N3        30.13S
MIDDLESBORO    CLEAR     60  42  50 NW3       30.11S
MONTICELLO     PTCLDY    60  42  51 CALM      30.14S
$$




USA.gov is the U.S. government's official web portal to all federal, state and local government web resources and services.